Regional Weather Roundup
Issued by NWS

Home | Current Version | Previous Version | Text Only | Print | Product List | Glossary On
Versions: 1 2 3 4 5 6 7 8 9 10 11 12 13 14 15 16 17 18 19 20 21 22 23 24 25 26 27 28 29 30 31 32 33 34 35 36 37 38 39 40 41 42 43 44 45 46 47 48 49 50
000
ASUS45 KCYS 310310
RWRWY

WYOMING REGIONAL WEATHER ROUNDUP
NATIONAL WEATHER SERVICE CHEYENNE WY
900 PM MDT WED JUL 30 2014

NOTE:  "FAIR" INDICATES FEW OR NO CLOUDS BELOW 12,000 FEET
WITH NO SIGNIFICANT WEATHER AND/OR OBSTRUCTIONS TO VISIBILITY.

WYZ001-310400-
YELLOWSTONE NATIONAL PARK

CITY           SKY/WX    TMP DP  RH WIND       PRES   REMARKS
LK YELLOWSTONE   N/A     55  46  71 CALM      30.45R
W YELLOWSTONE  NOT AVBL

$$
WYZ002>013-054>058-071-098>099-310400-
NORTHERN WYOMING

CITY           SKY/WX    TMP DP  RH WIND       PRES   REMARKS
JACKSON        CLEAR     63  50  63 S3        30.36R
CODY           NOT AVBL
GREYBULL       MOCLDY    78  44  29 S5        30.16S
WORLAND        MOCLDY    72  50  45 E3        30.18S
SHERIDAN       CLOUDY    66  51  58 S3        30.20R
BUFFALO        CLOUDY    68  36  30 SW3       30.27S
GILLETTE       MOCLDY    60  50  69 CALM      30.22S
HULETT         FAIR      63  46  55 MISG      30.24
NEWCASTLE      FAIR      70  37  30 MISG      30.22

$$
WYZ014>020-022>026-101>103-310400-
CENTRAL WYOMING

CITY           SKY/WX    TMP DP  RH WIND       PRES   REMARKS
BIG PINEY      CLOUDY    59  48  67 CALM      30.42R
PINEDALE       PTCLDY    54  45  71 NW6       30.43R
DUBOIS         FAIR      55  34  44 W5        30.41R
LANDER         CLOUDY    67  45  45 SW9       30.29R
RIVERTON       MOCLDY    68  44  42 W8        30.29S
CASPER         CLOUDY    66  42  41 NE5       30.27S
DOUGLAS        CLOUDY    68  50  52 SW5       30.26R

$$
WYZ021-027>030-104>119-310400-
SOUTHERN WYOMING

CITY           SKY/WX    TMP DP  RH WIND       PRES   REMARKS
EVANSTON       CLOUDY    58  53  84 E10       30.39R
KEMMERER       CLOUDY    55  46  71 N5        30.43R
FORT BRIDGER   CLOUDY    59  55  85 E6        30.43R
ROCK SPRINGS   CLOUDY    58  42  55 SE12      30.37S
DIXON          CLOUDY    61  51  70 NE12      30.35R
RAWLINS        CLOUDY    59  51  75 E7        30.37F
SARATOGA       CLOUDY    59  48  67 SE3       30.40R
LARAMIE        CLOUDY    55  51  86 W6        30.41S
CHEYENNE       CLOUDY    58  54  86 SW8       30.35F
TORRINGTON     CLOUDY    65  57  75 S7        30.22R
PINE BLUFFS    FAIR      59  55  88 SW6       30.32R

$$


USA.gov is the U.S. government's official web portal to all federal, state and local government web resources and services.